| time (UTC) | temp F | wind direction | speed knots | gust knots | rain 1hr in | rain 24hr in | rain mn in | humidity % | barometer mb |
| 20260906154504 | 78 | 13 | 0.9 | 8.7 | 0.00 | 0.03 | 0.01 | 87 | 1016.9 |
| 20260906153002 | 78 | 9 | 0.0 | 10.4 | 0.00 | 0.03 | 0.01 | 87 | 1016.7 |
| 20260906151607 | 77 | 360 | 0.9 | 7.0 | 0.00 | 0.03 | 0.01 | 88 | 1016.5 |
| 20260906150059 | 77 | 5 | 0.0 | 7.8 | 0.00 | 0.03 | 0.01 | 89 | 1016.3 |
| 20260906144609 | 76 | 360 | 1.7 | 5.2 | 0.00 | 0.03 | 0.01 | 91 | 1016.2 |
| 20260906143111 | 76 | 43 | 0.0 | 5.2 | 0.00 | 0.03 | 0.01 | 92 | 1016.1 |
| 20260906141556 | 76 | 19 | 0.9 | 7.8 | 0.00 | 0.03 | 0.01 | 92 | 1015.9 |
| 20260906140054 | 75 | 5 | 1.7 | 7.0 | 0.00 | 0.03 | 0.01 | 92 | 1016.0 |
| 20260906134555 | 75 | 355 | 5.2 | 7.8 | 0.00 | 0.03 | 0.01 | 93 | 1015.9 |
| 20260906133101 | 74 | 360 | 3.5 | 5.2 | 0.00 | 0.03 | 0.01 | 93 | 1016.0 |
| 20260906131558 | 74 | 355 | 3.5 | 7.8 | 0.00 | 0.03 | 0.01 | 93 | 1016.0 |
| 20260906130052 | 74 | 9 | 5.2 | 8.7 | 0.00 | 0.03 | 0.01 | 94 | 1016.1 |
| 20260906124551 | 73 | 5 | 2.6 | 7.8 | 0.00 | 0.03 | 0.01 | 94 | 1016.0 |
| 20260906123049 | 73 | 360 | 4.3 | 9.6 | 0.00 | 0.03 | 0.01 | 94 | 1015.9 |
| 20260906121547 | 74 | 360 | 0.0 | 5.2 | 0.00 | 0.03 | 0.01 | 93 | 1015.6 |
| 20260906120044 | 74 | 360 | 0.0 | 4.3 | 0.01 | 0.03 | 0.01 | 93 | 1015.4 |
| 20260906114541 | 74 | 355 | 0.0 | 5.2 | 0.01 | 0.03 | 0.01 | 93 | 1015.1 |
| 20260906113046 | 74 | 351 | 0.9 | 5.2 | 0.01 | 0.03 | 0.01 | 93 | 1015.0 |
| 20260906111540 | 74 | 360 | 2.6 | 5.2 | 0.01 | 0.03 | 0.01 | 93 | 1015.1 |
| 20260906110036 | 75 | 360 | 0.0 | 4.3 | 0.00 | 0.02 | 0.00 | 92 | 1015.0 |
| 20260906104532 | 76 | 5 | 0.0 | 7.8 | 0.00 | 0.02 | 0.00 | 90 | 1014.8 |
| 20260906103031 | 76 | 5 | 0.0 | 4.3 | 0.00 | 0.02 | 0.00 | 90 | 1014.8 |
| 20260906101529 | 77 | 5 | 1.7 | 7.0 | 0.00 | 0.02 | 0.00 | 90 | 1014.7 |
| 20260906100026 | 77 | 22 | 0.0 | 3.5 | 0.00 | 0.02 | 0.00 | 90 | 1014.4 |
| 20260906094532 | 77 | 355 | 0.0 | 4.3 | 0.00 | 0.02 | 0.00 | 89 | 1014.2 |
| 20260906093023 | 77 | 14 | 0.0 | 5.2 | 0.00 | 0.02 | 0.00 | 90 | 1014.4 |
| 20260906091527 | 78 | 360 | 0.0 | 4.3 | 0.00 | 0.02 | 0.00 | 90 | 1014.3 |
| 20260906090021 | 78 | 5 | 0.0 | 7.8 | 0.00 | 0.02 | 0.00 | 90 | 1014.2 |
| 20260906084523 | 79 | 11 | 0.9 | 7.8 | 0.00 | 0.02 | 0.00 | 90 | 1014.0 |
| 20260906083021 | 79 | 360 | 1.7 | 8.7 | 0.00 | 0.02 | 0.00 | 91 | 1013.7 |
| 20260906081529 | 79 | 23 | 0.0 | 3.5 | 0.00 | 0.02 | 0.00 | 90 | 1013.7 |
| 20260906080010 | 80 | 15 | 0.0 | 3.5 | 0.00 | 0.02 | 0.00 | 90 | 1013.6 |
| 20260906074508 | 80 | 5 | 0.0 | 3.5 | 0.00 | 0.02 | 0.00 | 90 | 1013.7 |
| 20260906073006 | 80 | 20 | 0.0 | 7.0 | 0.00 | 0.02 | 0.00 | 89 | 1013.8 |
| 20260906071502 | 81 | 5 | 0.0 | 7.0 | 0.00 | 0.02 | 0.00 | 89 | 1013.9 |
| 20260906070000 | 81 | 360 | 0.0 | 4.3 | 0.00 | 0.02 | 0.00 | 87 | 1013.6 |
| 20260906064559 | 82 | 0.0 | 0.0 | 0.00 | 0.02 | 0.00 | 86 | 1013.7 | |
| 20260906063101 | 82 | 0.0 | 0.0 | 0.00 | 0.02 | 0.00 | 85 | 1013.8 | |
| 20260906061556 | 82 | 0.0 | 0.0 | 0.00 | 0.02 | 0.00 | 82 | 1013.7 | |
| 20260906060055 | 82 | 0.0 | 0.0 | 0.00 | 0.02 | 0.00 | 81 | 1013.7 | |
| 20260906054555 | 82 | 0.0 | 0.0 | 0.00 | 0.02 | 0.00 | 80 | 1013.7 | |
| 20260906053050 | 83 | 0.0 | 0.0 | 0.00 | 0.02 | 0.00 | 79 | 1013.6 | |
| 20260906051552 | 83 | 0.0 | 0.0 | 0.00 | 0.02 | 0.00 | 78 | 1013.7 | |
| 20260906050110 | 83 | 348 | 0.0 | 0.0 | 0.00 | 0.02 | 0.00 | 77 | 1013.6 |
| 20260906044548 | 84 | 348 | 0.0 | 0.0 | 0.00 | 0.02 | 0.02 | 77 | 1013.5 |
| 20260906043048 | 84 | 348 | 0.0 | 0.0 | 0.00 | 0.02 | 0.02 | 76 | 1013.4 |
| 20260906041544 | 84 | 348 | 0.0 | 0.0 | 0.00 | 0.02 | 0.02 | 75 | 1013.4 |
| 20260906040046 | 84 | 348 | 0.0 | 0.0 | 0.00 | 0.02 | 0.02 | 74 | 1013.1 |
| 20260906034544 | 84 | 348 | 0.0 | 0.0 | 0.00 | 0.02 | 0.02 | 75 | 1013.1 |
| 20260906033044 | 85 | 348 | 0.0 | 0.0 | 0.00 | 0.02 | 0.02 | 74 | 1013.1 |
| 20260906031544 | 85 | 348 | 0.0 | 0.0 | 0.00 | 0.02 | 0.02 | 74 | 1013.1 |
| 20260906030041 | 85 | 348 | 0.0 | 0.0 | 0.00 | 0.02 | 0.02 | 72 | 1012.9 |
| 20260906024540 | 86 | 348 | 0.0 | 0.0 | 0.00 | 0.02 | 0.02 | 72 | 1012.7 |
| 20260906023041 | 86 | 348 | 0.0 | 0.0 | 0.00 | 0.02 | 0.02 | 70 | 1012.4 |
| 20260906021546 | 87 | 348 | 0.0 | 0.0 | 0.00 | 0.02 | 0.02 | 69 | 1012.3 |
| 20260906020040 | 87 | 348 | 0.0 | 0.0 | 0.00 | 0.02 | 0.02 | 68 | 1012.1 |
| 20260906014539 | 87 | 348 | 0.0 | 0.0 | 0.00 | 0.02 | 0.02 | 68 | 1011.8 |
| 20260906013038 | 88 | 348 | 0.0 | 0.0 | 0.00 | 0.02 | 0.02 | 67 | 1011.6 |
| 20260906011539 | 88 | 348 | 0.0 | 0.0 | 0.00 | 0.02 | 0.02 | 65 | 1011.5 |
| 20260906010041 | 89 | 348 | 0.0 | 0.0 | 0.00 | 0.02 | 0.02 | 64 | 1011.4 |
| 20260906004539 | 89 | 348 | 0.0 | 0.0 | 0.00 | 0.02 | 0.02 | 64 | 1011.3 |
| 20260906003037 | 89 | 348 | 0.0 | 5.2 | 0.00 | 0.02 | 0.02 | 66 | 1011.2 |
| 20260906001536 | 90 | 344 | 0.0 | 4.3 | 0.00 | 0.02 | 0.02 | 64 | 1011.3 |
| 20260906000036 | 91 | 343 | 0.9 | 3.5 | 0.00 | 0.02 | 0.02 | 61 | 1011.4 |
| 20260905234535 | 91 | 342 | 0.0 | 2.6 | 0.00 | 0.02 | 0.02 | 61 | 1011.3 |
| 20260905233036 | 91 | 323 | 0.0 | 1.7 | 0.00 | 0.02 | 0.02 | 59 | 1011.4 |
| 20260905231535 | 91 | 323 | 1.7 | 9.6 | 0.00 | 0.02 | 0.02 | 58 | 1011.4 |
| 20260905230034 | 92 | 328 | 0.9 | 9.6 | 0.00 | 0.02 | 0.02 | 58 | 1011.6 |
| 20260905224539 | 94 | 335 | 4.3 | 12.2 | 0.00 | 0.02 | 0.02 | 54 | 1011.5 |
| 20260905223035 | 93 | 360 | 2.6 | 7.0 | 0.00 | 0.02 | 0.02 | 59 | 1011.2 |
| 20260905221532 | 93 | 360 | 5.2 | 10.4 | 0.00 | 0.02 | 0.02 | 55 | 1011.1 |
| 20260905220033 | 94 | 360 | 4.3 | 9.6 | 0.02 | 0.02 | 0.02 | 57 | 1011.1 |
| 20260905214531 | 94 | 5 | 2.6 | 10.4 | 0.02 | 0.02 | 0.02 | 57 | 1011.2 |
| 20260905213030 | 93 | 360 | 0.0 | 2.6 | 0.02 | 0.02 | 0.02 | 57 | 1011.2 |
| 20260905211529 | 95 | 5 | 2.6 | 7.8 | 0.02 | 0.02 | 0.02 | 58 | 1011.1 |
| 20260905210031 | 95 | 355 | 2.6 | 5.2 | 0.00 | 0.00 | 0.00 | 53 | 1011.4 |
| 20260905204525 | 95 | 355 | 0.9 | 9.6 | 0.00 | 0.00 | 0.00 | 54 | 1011.6 |
| 20260905203025 | 95 | 13 | 2.6 | 12.2 | 0.00 | 0.00 | 0.00 | 55 | 1011.6 |
| 20260905201534 | 95 | 15 | 8.7 | 13.0 | 0.00 | 0.00 | 0.00 | 53 | 1011.7 |
| 20260905200033 | 95 | 344 | 6.1 | 11.3 | 0.00 | 0.00 | 0.00 | 56 | 1011.8 |
| 20260905194522 | 96 | 360 | 7.0 | 13.0 | 0.00 | 0.00 | 0.00 | 55 | 1011.8 |
| 20260905193027 | 98 | 310 | 4.3 | 13.9 | 0.00 | 0.00 | 0.00 | 48 | 1012.0 |
| 20260905191519 | 98 | 355 | 6.1 | 11.3 | 0.00 | 0.00 | 0.00 | 49 | 1012.3 |
| 20260905190016 | 100 | 305 | 7.0 | 13.0 | 0.00 | 0.00 | 0.00 | 47 | 1012.4 |
| 20260905184517 | 99 | 290 | 2.6 | 9.6 | 0.00 | 0.00 | 0.00 | 48 | 1012.4 |
| 20260905183014 | 99 | 295 | 1.7 | 7.8 | 0.00 | 0.00 | 0.00 | 46 | 1012.5 |
| 20260905181511 | 97 | 336 | 2.6 | 9.6 | 0.00 | 0.00 | 0.00 | 48 | 1012.6 |
| 20260905180006 | 97 | 355 | 0.0 | 0.0 | 0.00 | 0.00 | 0.00 | 53 | 1012.8 |
| 20260905174506 | 96 | 338 | 3.5 | 7.0 | 0.00 | 0.00 | 0.00 | 52 | 1013.0 |
| 20260905173110 | 95 | 348 | 0.0 | 3.5 | 0.00 | 0.00 | 0.00 | 52 | 1013.1 |
| 20260905171558 | 94 | 348 | 0.0 | 5.2 | 0.00 | 0.00 | 0.00 | 55 | 1013.2 |
| 20260905170056 | 94 | 317 | 0.0 | 7.8 | 0.00 | 0.00 | 0.00 | 58 | 1013.6 |
| 20260905164552 | 93 | 355 | 4.3 | 8.7 | 0.00 | 0.00 | 0.00 | 60 | 1013.7 |
| 20260905163053 | 92 | 355 | 2.6 | 7.0 | 0.00 | 0.00 | 0.00 | 62 | 1013.8 |
| 20260905161547 | 92 | 355 | 2.6 | 5.2 | 0.00 | 0.00 | 0.00 | 63 | 1013.8 |
| 20260905160052 | 91 | 310 | 0.0 | 3.5 | 0.00 | 0.00 | 0.00 | 64 | 1013.8 |